STARLINK-37993

Last updated on Sun Aug 09 2026 00:02:04 GMT+0000 (Coordinated Universal Time)

1 69976U 26159B 26220.52606053 .00149884 00000+0 98742-3 0 9995 2 69976 97.2838 60.5539 0001211 70.2552 289.8844 15.75208783 5701
UTC large
Height (km)
Speed (km/s)
/
Latitude / Longitude
Inclination (degrees)
Orbital Period (minutes)
Azimuth
Elevation
Range (km)
Doppler Factor

Next 0 passes for location: London (51.5072 / 0.1276)

No passes found over London.
STARLINK-37993